category,name,time,total,current
輕油(Diesel),金門塔山(註4),00:00:00,91,41.7
輕油(Diesel),金門塔山(註4),00:10:00,91,41.9
輕油(Diesel),金門塔山(註4),00:20:00,91,41
輕油(Diesel),金門塔山(註4),00:30:00,91,41
輕油(Diesel),金門塔山(註4),00:40:00,91,39.9
輕油(Diesel),金門塔山(註4),00:50:00,91,38.7
輕油(Diesel),金門塔山(註4),01:00:00,91,38.8
輕油(Diesel),金門塔山(註4),01:10:00,91,37.9
輕油(Diesel),金門塔山(註4),01:20:00,91,37.6
輕油(Diesel),金門塔山(註4),01:30:00,91,37
輕油(Diesel),金門塔山(註4),01:40:00,91,37
輕油(Diesel),金門塔山(註4),01:50:00,91,36.8
輕油(Diesel),金門塔山(註4),02:00:00,91,36.8
輕油(Diesel),金門塔山(註4),02:10:00,91,35.7
輕油(Diesel),金門塔山(註4),02:20:00,91,35.4
輕油(Diesel),金門塔山(註4),02:30:00,91,34.7
輕油(Diesel),金門塔山(註4),02:40:00,91,35
輕油(Diesel),金門塔山(註4),02:50:00,91,34.6
輕油(Diesel),金門塔山(註4),03:00:00,91,34.2
輕油(Diesel),金門塔山(註4),03:10:00,91,34.8
輕油(Diesel),金門塔山(註4),03:20:00,91,34.2
輕油(Diesel),金門塔山(註4),03:30:00,91,33.9
輕油(Diesel),金門塔山(註4),03:40:00,91,34
輕油(Diesel),金門塔山(註4),03:50:00,91,33.6
輕油(Diesel),金門塔山(註4),04:00:00,91,33.8
輕油(Diesel),金門塔山(註4),04:10:00,91,33.5
輕油(Diesel),金門塔山(註4),04:20:00,91,33.7
輕油(Diesel),金門塔山(註4),04:30:00,91,33.4
輕油(Diesel),金門塔山(註4),04:40:00,91,33.6
輕油(Diesel),金門塔山(註4),04:50:00,91,33.7
輕油(Diesel),金門塔山(註4),05:00:00,91,33.8
輕油(Diesel),金門塔山(註4),05:10:00,91,34
輕油(Diesel),金門塔山(註4),05:20:00,91,33.9
輕油(Diesel),金門塔山(註4),05:30:00,91,33.6
輕油(Diesel),金門塔山(註4),05:40:00,91,33.8
輕油(Diesel),金門塔山(註4),05:50:00,91,33
輕油(Diesel),金門塔山(註4),06:00:00,91,33.3
輕油(Diesel),金門塔山(註4),06:10:00,91,33.4
輕油(Diesel),金門塔山(註4),06:20:00,91,33.3
輕油(Diesel),金門塔山(註4),06:30:00,91,33.7
輕油(Diesel),金門塔山(註4),06:40:00,91,34.3
輕油(Diesel),金門塔山(註4),06:50:00,91,34.6
輕油(Diesel),金門塔山(註4),07:00:00,91,35.3
輕油(Diesel),金門塔山(註4),07:10:00,91,36.2
輕油(Diesel),金門塔山(註4),07:20:00,91,36.1
輕油(Diesel),金門塔山(註4),07:30:00,91,36.7
輕油(Diesel),金門塔山(註4),07:40:00,91,37.4
輕油(Diesel),金門塔山(註4),07:50:00,91,38.1
輕油(Diesel),金門塔山(註4),08:00:00,91,40.4
輕油(Diesel),金門塔山(註4),08:10:00,91,42.8
輕油(Diesel),金門塔山(註4),08:20:00,91,43.4
輕油(Diesel),金門塔山(註4),08:30:00,91,44.1
輕油(Diesel),金門塔山(註4),08:40:00,91,44.1
輕油(Diesel),金門塔山(註4),08:50:00,91,44.5
輕油(Diesel),金門塔山(註4),09:00:00,91,45.7
輕油(Diesel),金門塔山(註4),09:10:00,91,46.9
輕油(Diesel),金門塔山(註4),09:20:00,91,46.7
輕油(Diesel),金門塔山(註4),09:30:00,91,46.8
輕油(Diesel),金門塔山(註4),09:40:00,91,47.2
輕油(Diesel),金門塔山(註4),09:50:00,91,47.8
輕油(Diesel),金門塔山(註4),10:00:00,91,48.9
輕油(Diesel),金門塔山(註4),10:10:00,91,48
輕油(Diesel),金門塔山(註4),10:20:00,91,49
輕油(Diesel),金門塔山(註4),10:30:00,91,49.5
輕油(Diesel),金門塔山(註4),10:40:00,91,49.2
輕油(Diesel),金門塔山(註4),10:50:00,91,49.7
輕油(Diesel),金門塔山(註4),11:00:00,91,50.4
輕油(Diesel),金門塔山(註4),11:10:00,91,50
輕油(Diesel),金門塔山(註4),11:20:00,91,50.3
輕油(Diesel),金門塔山(註4),11:30:00,91,51
輕油(Diesel),金門塔山(註4),11:40:00,91,50.9
輕油(Diesel),金門塔山(註4),11:50:00,91,50.6
輕油(Diesel),金門塔山(註4),12:00:00,91,50.8
輕油(Diesel),金門塔山(註4),12:10:00,91,50.6
輕油(Diesel),金門塔山(註4),12:20:00,91,51.7
輕油(Diesel),金門塔山(註4),12:30:00,91,51.5
輕油(Diesel),金門塔山(註4),12:40:00,91,52
輕油(Diesel),金門塔山(註4),12:50:00,91,51.9
輕油(Diesel),金門塔山(註4),13:00:00,91,52.3
輕油(Diesel),金門塔山(註4),13:10:00,91,52.5
輕油(Diesel),金門塔山(註4),13:20:00,91,52.8
輕油(Diesel),金門塔山(註4),13:30:00,91,52.9
輕油(Diesel),金門塔山(註4),13:40:00,91,52.3
輕油(Diesel),金門塔山(註4),13:50:00,91,51.8
輕油(Diesel),金門塔山(註4),14:00:00,91,50.8
輕油(Diesel),金門塔山(註4),14:10:00,91,50.3
輕油(Diesel),金門塔山(註4),14:20:00,91,51.9
輕油(Diesel),金門塔山(註4),14:30:00,91,51.9
輕油(Diesel),金門塔山(註4),14:40:00,91,51.1
輕油(Diesel),金門塔山(註4),14:50:00,91,50.6
輕油(Diesel),金門塔山(註4),15:00:00,91,50.6
輕油(Diesel),金門塔山(註4),15:10:00,91,50.4
輕油(Diesel),金門塔山(註4),15:20:00,91,50
輕油(Diesel),金門塔山(註4),15:30:00,91,49.5
輕油(Diesel),金門塔山(註4),15:40:00,91,50
輕油(Diesel),金門塔山(註4),15:50:00,91,50.3
輕油(Diesel),金門塔山(註4),16:00:00,91,49.5
輕油(Diesel),金門塔山(註4),16:10:00,91,50.2
輕油(Diesel),金門塔山(註4),16:20:00,91,48.2
輕油(Diesel),金門塔山(註4),16:30:00,91,50.4
輕油(Diesel),金門塔山(註4),16:40:00,91,49.7
輕油(Diesel),金門塔山(註4),16:50:00,91,49.3
輕油(Diesel),金門塔山(註4),17:00:00,91,49.3
輕油(Diesel),金門塔山(註4),17:10:00,91,47.2
輕油(Diesel),金門塔山(註4),17:20:00,91,48
輕油(Diesel),金門塔山(註4),17:30:00,91,48.3
輕油(Diesel),金門塔山(註4),17:40:00,91,46.6
輕油(Diesel),金門塔山(註4),17:50:00,91,46.7
輕油(Diesel),金門塔山(註4),18:00:00,91,46.7
輕油(Diesel),金門塔山(註4),18:10:00,91,46.7
輕油(Diesel),金門塔山(註4),18:20:00,91,46.1
輕油(Diesel),金門塔山(註4),18:30:00,91,46.8
輕油(Diesel),金門塔山(註4),18:40:00,91,46.8
輕油(Diesel),金門塔山(註4),18:50:00,91,47.6
輕油(Diesel),金門塔山(註4),19:00:00,91,48.4
輕油(Diesel),金門塔山(註4),19:10:00,91,48.8
輕油(Diesel),金門塔山(註4),19:20:00,91,48.1
輕油(Diesel),金門塔山(註4),19:30:00,91,46.8
輕油(Diesel),金門塔山(註4),19:40:00,91,46.5
輕油(Diesel),金門塔山(註4),19:50:00,91,46.6
輕油(Diesel),金門塔山(註4),20:00:00,91,47.2
輕油(Diesel),金門塔山(註4),20:10:00,91,47
輕油(Diesel),金門塔山(註4),20:20:00,91,46.8
輕油(Diesel),金門塔山(註4),20:30:00,91,47.6
輕油(Diesel),金門塔山(註4),20:40:00,91,47.3
輕油(Diesel),金門塔山(註4),20:50:00,91,47.8
輕油(Diesel),金門塔山(註4),21:00:00,91,47.8
輕油(Diesel),金門塔山(註4),21:10:00,91,48.3
輕油(Diesel),金門塔山(註4),21:20:00,91,48.4
輕油(Diesel),金門塔山(註4),21:30:00,91,48.1
輕油(Diesel),金門塔山(註4),21:40:00,91,47.7
輕油(Diesel),金門塔山(註4),21:50:00,91,48
輕油(Diesel),金門塔山(註4),22:00:00,91,48.1
輕油(Diesel),金門塔山(註4),22:10:00,91,48.1
輕油(Diesel),金門塔山(註4),22:20:00,91,47.7
輕油(Diesel),金門塔山(註4),22:30:00,91,46.9
輕油(Diesel),金門塔山(註4),22:40:00,91,46
輕油(Diesel),金門塔山(註4),22:50:00,91,45.4
輕油(Diesel),金門塔山(註4),23:00:00,91,44.7
輕油(Diesel),金門塔山(註4),23:10:00,91,44.9
輕油(Diesel),金門塔山(註4),23:20:00,91,44.9
輕油(Diesel),金門塔山(註4),23:30:00,91,44.6
輕油(Diesel),金門塔山(註4),23:40:00,91,43.9
輕油(Diesel),金門塔山(註4),23:50:00,91,42.8
